SWA5300 KSEA-PAKT

Flight info

Callsign SWA5300
Flight time 1h 46m
Altitude 36000
Route BANGR9 PANGL PR ANN
Aircraft B738/M-SDE2E3FGHIRWXY/LB1

Departure

Time 2026-05-07 01:14
Airport Seattle–Tacoma International Airport (KSEA)

Arrival

Time 2026-05-07 03:01
Airport Ketchikan International Airport (PAKT)
Time Latitude Longitude Altitude Speed Heading
2026-05-07 00:21 47.44173 -122.30316 390 ft 0 kts 300°
2026-05-07 00:59 47.44165 -122.30295 390 ft 3 kts 298°
2026-05-07 01:00 47.44154 -122.30268 390 ft 3 kts 303°
2026-05-07 01:00 47.44142 -122.30246 390 ft 3 kts 332°
2026-05-07 01:00 47.44126 -122.30240 389 ft 3 kts
2026-05-07 01:00 47.44105 -122.30240 389 ft 3 kts
2026-05-07 01:01 47.44085 -122.30240 389 ft 2 kts
2026-05-07 01:01 47.44066 -122.30237 388 ft 3 kts 329°
2026-05-07 01:01 47.44055 -122.30219 388 ft 3 kts 282°
2026-05-07 01:01 47.44053 -122.30189 389 ft 3 kts 269°
2026-05-07 01:02 47.44053 -122.30158 389 ft 3 kts 276°
2026-05-07 01:02 47.44050 -122.30132 389 ft 3 kts 287°
2026-05-07 01:02 47.44043 -122.30107 389 ft 0 kts 303°
2026-05-07 01:05 47.44050 -122.30134 389 ft 5 kts 284°
2026-05-07 01:05 47.44050 -122.30193 388 ft 6 kts 255°
2026-05-07 01:05 47.44028 -122.30251 387 ft 7 kts 238°
2026-05-07 01:06 47.44002 -122.30327 386 ft 9 kts 251°
2026-05-07 01:06 47.43992 -122.30432 384 ft 11 kts 268°
2026-05-07 01:06 47.43992 -122.30545 383 ft 11 kts 271°
2026-05-07 01:06 47.44026 -122.30631 383 ft 11 kts 344°
2026-05-07 01:07 47.44099 -122.30636 385 ft 10 kts
2026-05-07 01:07 47.44146 -122.30635 386 ft 10 kts
2026-05-07 01:07 47.44215 -122.30634 388 ft 10 kts
2026-05-07 01:07 47.44283 -122.30634 390 ft 10 kts 360°
2026-05-07 01:08 47.44349 -122.30633 392 ft 9 kts
2026-05-07 01:08 47.44418 -122.30633 389 ft 11 kts 360°
2026-05-07 01:08 47.44494 -122.30632 393 ft 12 kts
2026-05-07 01:08 47.44581 -122.30631 397 ft 13 kts
2026-05-07 01:09 47.44670 -122.30629 401 ft 13 kts
2026-05-07 01:09 47.44758 -122.30630 403 ft 13 kts 360°
2026-05-07 01:09 47.44852 -122.30629 405 ft 14 kts
2026-05-07 01:09 47.44948 -122.30628 409 ft 13 kts
2026-05-07 01:10 47.45042 -122.30626 412 ft 14 kts 360°
2026-05-07 01:10 47.45146 -122.30626 412 ft 16 kts 359°
2026-05-07 01:10 47.45252 -122.30625 410 ft 15 kts
2026-05-07 01:10 47.45360 -122.30624 419 ft 17 kts
2026-05-07 01:11 47.45480 -122.30623 422 ft 18 kts
2026-05-07 01:11 47.45610 -122.30622 430 ft 20 kts
2026-05-07 01:11 47.45750 -122.30621 430 ft 21 kts
2026-05-07 01:11 47.45892 -122.30619 423 ft 20 kts
2026-05-07 01:12 47.46029 -122.30618 428 ft 20 kts
2026-05-07 01:12 47.46163 -122.30617 435 ft 19 kts
2026-05-07 01:12 47.46281 -122.30614 434 ft 12 kts
2026-05-07 01:12 47.46357 -122.30634 436 ft 11 kts 323°
2026-05-07 01:13 47.46369 -122.30732 441 ft 11 kts 250°
2026-05-07 01:13 47.46338 -122.30776 436 ft 7 kts 184°
2026-05-07 01:13 47.46317 -122.30777 436 ft 0 kts 181°
2026-05-07 01:13 47.46243 -122.30777 439 ft 38 kts 180°
2026-05-07 01:14 47.45730 -122.30782 424 ft 107 kts 180°
2026-05-07 01:14 47.44778 -122.30791 420 ft 163 kts 182°
2026-05-07 01:14 47.43659 -122.30771 1204 ft 153 kts 179°
2026-05-07 01:14 47.42601 -122.30677 1940 ft 158 kts 179°
2026-05-07 01:15 47.41449 -122.30707 2426 ft 172 kts 186°
2026-05-07 01:15 47.40226 -122.30788 3038 ft 180 kts 185°
2026-05-07 01:15 47.38927 -122.30849 3585 ft 195 kts 183°
2026-05-07 01:15 47.37507 -122.30924 3879 ft 214 kts 184°
2026-05-07 01:16 47.35944 -122.31019 4103 ft 235 kts 184°
2026-05-07 01:16 47.34242 -122.31147 4459 ft 253 kts 190°
2026-05-07 01:16 47.32648 -122.32226 5116 ft 258 kts 223°
2026-05-07 01:16 47.31689 -122.34431 5859 ft 259 kts 253°
2026-05-07 01:17 47.31331 -122.37036 6619 ft 261 kts 263°
2026-05-07 01:17 47.31062 -122.39689 7355 ft 262 kts 263°
2026-05-07 01:17 47.30821 -122.42334 8185 ft 259 kts 269°
2026-05-07 01:17 47.31120 -122.44942 8921 ft 261 kts 289°
2026-05-07 01:18 47.31888 -122.47370 9698 ft 262 kts 296°
2026-05-07 01:18 47.32762 -122.49736 10395 ft 266 kts 297°
2026-05-07 01:18 47.33806 -122.52080 10803 ft 281 kts 311°
2026-05-07 01:18 47.35268 -122.54008 11564 ft 282 kts 316°
2026-05-07 01:19 47.36762 -122.55896 12310 ft 283 kts 316°
2026-05-07 01:19 47.38265 -122.57796 13065 ft 286 kts 315°
2026-05-07 01:19 47.39777 -122.59715 13817 ft 288 kts 315°
2026-05-07 01:19 47.41300 -122.61657 14522 ft 290 kts 315°
2026-05-07 01:20 47.42828 -122.63612 15225 ft 292 kts 315°
2026-05-07 01:20 47.44369 -122.65589 15893 ft 295 kts 315°
2026-05-07 01:20 47.45925 -122.67590 16585 ft 297 kts 315°
2026-05-07 01:20 47.47487 -122.69600 17339 ft 298 kts 315°
2026-05-07 01:21 47.49054 -122.71620 18053 ft 300 kts 314°
2026-05-07 01:21 47.50633 -122.73658 18705 ft 303 kts 314°
2026-05-07 01:21 47.52226 -122.75717 19300 ft 305 kts 315°
2026-05-07 01:21 47.53832 -122.77793 19907 ft 307 kts 315°
2026-05-07 01:22 47.55442 -122.79877 20512 ft 310 kts 315°
2026-05-07 01:22 47.57074 -122.81991 21053 ft 312 kts 315°
2026-05-07 01:22 47.58713 -122.84115 21629 ft 315 kts 315°
2026-05-07 01:22 47.60370 -122.86265 22204 ft 318 kts 315°
2026-05-07 01:23 47.62040 -122.88434 22777 ft 321 kts 316°
2026-05-07 01:23 47.63725 -122.90624 23327 ft 324 kts 316°
2026-05-07 01:23 47.65396 -122.92874 23874 ft 325 kts 314°
2026-05-07 01:23 47.67017 -122.95227 24349 ft 327 kts 313°
2026-05-07 01:24 47.68626 -122.97619 24839 ft 328 kts 313°
2026-05-07 01:24 47.70240 -123.00027 25311 ft 330 kts 313°
2026-05-07 01:24 47.71851 -123.02457 25755 ft 330 kts 312°
2026-05-07 01:24 47.73468 -123.04891 26138 ft 333 kts 313°
2026-05-07 01:25 47.75114 -123.07334 26520 ft 335 kts 313°
2026-05-07 01:25 47.76761 -123.09766 27084 ft 334 kts 314°
2026-05-07 01:25 47.78453 -123.12174 27389 ft 339 kts 314°
2026-05-07 01:25 47.80142 -123.14661 27745 ft 344 kts 312°
2026-05-07 01:26 47.81804 -123.17233 28180 ft 346 kts 313°
2026-05-07 01:26 47.83509 -123.19780 28488 ft 347 kts 313°
2026-05-07 01:26 47.85222 -123.22322 28933 ft 349 kts 312°
2026-05-07 01:26 47.86950 -123.24867 29345 ft 350 kts 313°
2026-05-07 01:27 47.88661 -123.27449 29781 ft 351 kts 313°
2026-05-07 01:27 47.90395 -123.30039 30177 ft 352 kts 313°
2026-05-07 01:27 47.92134 -123.32628 30514 ft 355 kts 314°
2026-05-07 01:27 47.93892 -123.35233 30712 ft 359 kts 313°
2026-05-07 01:28 47.95656 -123.37881 31086 ft 360 kts 313°
2026-05-07 01:28 47.97420 -123.40532 31449 ft 360 kts 313°
2026-05-07 01:28 47.99195 -123.43186 31757 ft 362 kts 313°
2026-05-07 01:28 48.00986 -123.45847 32049 ft 364 kts 314°
2026-05-07 01:29 48.02789 -123.48519 32378 ft 366 kts 313°
2026-05-07 01:29 48.04578 -123.51236 32687 ft 367 kts 313°
2026-05-07 01:29 48.06374 -123.53961 32978 ft 369 kts 313°
2026-05-07 01:29 48.08182 -123.56693 33261 ft 370 kts 313°
2026-05-07 01:30 48.09998 -123.59434 33526 ft 372 kts 313°
2026-05-07 01:30 48.11821 -123.62187 33797 ft 373 kts 313°
2026-05-07 01:30 48.13649 -123.64951 34093 ft 374 kts 313°
2026-05-07 01:30 48.15548 -123.67621 34313 ft 377 kts 321°
2026-05-07 01:31 48.17733 -123.69809 34514 ft 380 kts 324°
2026-05-07 01:31 48.19989 -123.71900 34728 ft 381 kts 325°
2026-05-07 01:31 48.22249 -123.73974 34931 ft 382 kts 325°
2026-05-07 01:31 48.24519 -123.76064 35114 ft 383 kts 324°
2026-05-07 01:32 48.26791 -123.78171 35303 ft 384 kts 324°
2026-05-07 01:32 48.29065 -123.80294 35505 ft 385 kts 324°
2026-05-07 01:32 48.31340 -123.82432 35689 ft 386 kts 324°
2026-05-07 01:32 48.33618 -123.84583 35875 ft 387 kts 324°
2026-05-07 01:33 48.35900 -123.86744 36056 ft 388 kts 324°
2026-05-07 01:33 48.38189 -123.88916 36165 ft 390 kts 324°
2026-05-07 01:33 48.40497 -123.91112 36164 ft 394 kts 324°
2026-05-07 01:34 48.45222 -123.95419 36158 ft 398 kts 324°
2026-05-07 01:34 48.49881 -123.99969 36198 ft 402 kts 323°
2026-05-07 01:35 48.54557 -124.04551 36179 ft 397 kts 323°
2026-05-07 01:35 48.56999 -124.06444 36198 ft 395 kts 336°
2026-05-07 01:35 48.59500 -124.08085 36136 ft 390 kts 322°
2026-05-07 01:36 48.63995 -124.12717 36197 ft 396 kts 324°
2026-05-07 01:36 48.68712 -124.17115 36163 ft 399 kts 324°
2026-05-07 01:37 48.73441 -124.21499 36132 ft 400 kts 327°
2026-05-07 01:37 48.78150 -124.25793 36194 ft 391 kts 320°
2026-05-07 01:38 48.82716 -124.30240 36168 ft 386 kts 324°
2026-05-07 01:38 48.87200 -124.34731 36150 ft 391 kts 322°
2026-05-07 01:39 48.91797 -124.39259 36179 ft 396 kts 323°
2026-05-07 01:39 48.96459 -124.43738 36162 ft 396 kts 324°
2026-05-07 01:40 49.01136 -124.48187 36150 ft 397 kts 320°
2026-05-07 01:40 49.05668 -124.52948 36189 ft 396 kts 321°
2026-05-07 01:41 49.10296 -124.57495 36114 ft 396 kts 329°
2026-05-07 01:41 49.15022 -124.61616 36187 ft 390 kts 323°
2026-05-07 01:42 49.19703 -124.65843 36166 ft 391 kts 325°
2026-05-07 01:42 49.24418 -124.69987 36171 ft 390 kts 325°
2026-05-07 01:43 49.29107 -124.74178 36171 ft 390 kts 324°
2026-05-07 01:43 49.33789 -124.78421 36190 ft 391 kts 324°
2026-05-07 01:44 49.38505 -124.82687 36129 ft 394 kts 325°
2026-05-07 01:44 49.40941 -124.84586 36254 ft 389 kts 326°
2026-05-07 01:44 49.43194 -124.86870 36207 ft 388 kts 318°
2026-05-07 01:45 49.47791 -124.91381 36155 ft 395 kts 325°
2026-05-07 01:45 49.52579 -124.95563 36163 ft 395 kts 324°
2026-05-07 01:46 49.57307 -124.99840 36177 ft 394 kts 323°
2026-05-07 01:46 49.62016 -125.04183 36166 ft 395 kts 323°
2026-05-07 01:47 49.65940 -125.07809 36172 ft 395 kts 322°
2026-05-07 01:47 49.70539 -125.12460 36166 ft 394 kts 321°
2026-05-07 01:48 49.75141 -125.17058 36157 ft 393 kts 323°
2026-05-07 01:48 49.79586 -125.21905 36177 ft 391 kts 319°
2026-05-07 01:49 49.84083 -125.26688 36195 ft 393 kts 320°
2026-05-07 01:49 49.88660 -125.31352 36156 ft 394 kts 321°
2026-05-07 01:50 49.93232 -125.36043 36149 ft 394 kts 321°
2026-05-07 01:50 49.97795 -125.40761 36171 ft 393 kts 321°
2026-05-07 01:51 50.02313 -125.45468 36153 ft 389 kts 320°
2026-05-07 01:51 50.06784 -125.50141 36160 ft 385 kts 320°
2026-05-07 01:52 50.11223 -125.54788 36173 ft 383 kts 320°
2026-05-07 01:52 50.15679 -125.59478 36184 ft 390 kts 320°
2026-05-07 01:53 50.20294 -125.64064 36214 ft 393 kts 320°
2026-05-07 01:53 50.24735 -125.69079 36190 ft 397 kts 319°
2026-05-07 01:54 50.29322 -125.73951 36226 ft 399 kts 320°
2026-05-07 01:54 50.33899 -125.78855 36173 ft 396 kts 320°
2026-05-07 01:55 50.38425 -125.83585 36219 ft 388 kts 320°
2026-05-07 01:55 50.42911 -125.88295 36207 ft 387 kts 320°
2026-05-07 01:56 50.47361 -125.93037 36198 ft 387 kts 320°
2026-05-07 01:56 50.51809 -125.97785 36229 ft 387 kts 320°
2026-05-07 01:57 50.56268 -126.02566 36241 ft 389 kts 319°
2026-05-07 01:57 50.60753 -126.07384 36223 ft 391 kts 320°
2026-05-07 01:58 50.65252 -126.12209 36231 ft 392 kts 320°
2026-05-07 01:58 50.69741 -126.17085 36264 ft 391 kts 318°
2026-05-07 01:59 50.74255 -126.22001 36231 ft 397 kts 322°
2026-05-07 01:59 50.78846 -126.26778 36228 ft 394 kts 319°
2026-05-07 02:00 50.83346 -126.31738 36184 ft 394 kts 320°
2026-05-07 02:00 50.87805 -126.36713 36221 ft 392 kts 316°
2026-05-07 02:01 50.92309 -126.41697 36221 ft 397 kts 320°
2026-05-07 02:01 50.96891 -126.46581 36146 ft 394 kts 319°
2026-05-07 02:02 51.01336 -126.51644 36236 ft 393 kts 316°
2026-05-07 02:02 51.05594 -126.57045 36166 ft 389 kts 317°
2026-05-07 02:03 51.09786 -126.62375 36208 ft 386 kts 314°
2026-05-07 02:03 51.13955 -126.67844 36243 ft 392 kts 314°
2026-05-07 02:04 51.18195 -126.73475 36185 ft 399 kts 314°
2026-05-07 02:04 51.22418 -126.79096 36177 ft 392 kts 314°
2026-05-07 02:05 51.26504 -126.84758 36184 ft 388 kts 313°
2026-05-07 02:05 51.30705 -126.90128 36176 ft 385 kts 315°
2026-05-07 02:06 51.34788 -126.95600 36193 ft 385 kts 311°
2026-05-07 02:06 51.38914 -127.01259 36150 ft 397 kts 317°
2026-05-07 02:07 51.43065 -127.07032 36215 ft 399 kts 312°
2026-05-07 02:07 51.49367 -127.15587 36232 ft 391 kts 315°
2026-05-07 02:08 51.53516 -127.21186 36238 ft 390 kts 314°
2026-05-07 02:08 51.57798 -127.26453 36259 ft 384 kts 314°
2026-05-07 02:09 51.61773 -127.32261 36255 ft 390 kts 312°
2026-05-07 02:09 51.65927 -127.38037 36184 ft 397 kts 315°
2026-05-07 02:10 51.70160 -127.43685 36290 ft 393 kts 312°
2026-05-07 02:10 51.74308 -127.49497 36243 ft 398 kts 315°
2026-05-07 02:11 51.78559 -127.55218 36268 ft 397 kts 313°
2026-05-07 02:11 51.82692 -127.61032 36241 ft 388 kts 313°
2026-05-07 02:12 51.86758 -127.66678 36255 ft 384 kts 313°
2026-05-07 02:12 51.90811 -127.72335 36267 ft 386 kts 313°
2026-05-07 02:13 51.94882 -127.78030 36269 ft 392 kts 313°
2026-05-07 02:13 51.99041 -127.83858 36262 ft 394 kts 312°
2026-05-07 02:14 52.03199 -127.89700 36276 ft 396 kts 313°
2026-05-07 02:14 52.07364 -127.95564 36264 ft 396 kts 313°
2026-05-07 02:15 52.11519 -128.01426 36286 ft 395 kts 312°
2026-05-07 02:15 52.15635 -128.07252 36271 ft 394 kts 312°
2026-05-07 02:16 52.19722 -128.13150 36263 ft 391 kts 310°
2026-05-07 02:16 52.23603 -128.19300 36267 ft 388 kts 309°
2026-05-07 02:17 52.27456 -128.25529 36262 ft 387 kts 309°
2026-05-07 02:17 52.31254 -128.31651 36268 ft 386 kts 309°
2026-05-07 02:18 52.35077 -128.37801 36259 ft 385 kts 309°
2026-05-07 02:18 52.38896 -128.43950 36254 ft 385 kts 309°
2026-05-07 02:19 52.42713 -128.50109 36255 ft 385 kts 309°
2026-05-07 02:19 52.46553 -128.56242 36264 ft 386 kts 309°
2026-05-07 02:20 52.50369 -128.62457 36264 ft 387 kts 308°
2026-05-07 02:20 52.54193 -128.68712 36258 ft 388 kts 308°
2026-05-07 02:21 52.58031 -128.74982 36265 ft 389 kts 308°
2026-05-07 02:21 52.61876 -128.81270 36260 ft 390 kts 308°
2026-05-07 02:22 52.65747 -128.87612 36256 ft 391 kts 308°
2026-05-07 02:22 52.69602 -128.93947 36269 ft 392 kts 308°
2026-05-07 02:23 52.73459 -129.00303 36259 ft 393 kts 308°
2026-05-07 02:23 52.77325 -129.06650 36264 ft 392 kts 308°
2026-05-07 02:24 52.81166 -129.13038 36271 ft 392 kts 308°
2026-05-07 02:24 52.85012 -129.19434 36263 ft 392 kts 308°
2026-05-07 02:25 52.88204 -129.24749 36275 ft 392 kts 308°
2026-05-07 02:25 52.92049 -129.31165 36271 ft 392 kts 308°
2026-05-07 02:26 52.95890 -129.37592 36270 ft 392 kts 308°
2026-05-07 02:26 52.99727 -129.44028 36269 ft 392 kts 308°
2026-05-07 02:27 53.03850 -129.50042 36270 ft 401 kts 318°
2026-05-07 02:27 53.08872 -129.54403 36280 ft 413 kts 327°
2026-05-07 02:28 53.14158 -129.58195 36272 ft 414 kts 327°
2026-05-07 02:28 53.19470 -129.62026 35782 ft 420 kts 327°
2026-05-07 02:29 53.22128 -129.63955 35419 ft 414 kts 327°
2026-05-07 02:29 53.24758 -129.65871 34989 ft 410 kts 327°
2026-05-07 02:29 53.27360 -129.67773 34571 ft 406 kts 327°
2026-05-07 02:29 53.29938 -129.69663 34145 ft 403 kts 327°
2026-05-07 02:30 53.32492 -129.71543 33709 ft 399 kts 327°
2026-05-07 02:30 53.35025 -129.73413 33275 ft 396 kts 327°
2026-05-07 02:30 53.37533 -129.75267 32843 ft 393 kts 327°
2026-05-07 02:30 53.40033 -129.77115 32430 ft 390 kts 327°
2026-05-07 02:31 53.42502 -129.78948 32061 ft 387 kts 327°
2026-05-07 02:31 53.44958 -129.80776 31632 ft 385 kts 328°
2026-05-07 02:31 53.47402 -129.82585 31232 ft 382 kts 328°
2026-05-07 02:31 53.49830 -129.84363 30863 ft 378 kts 328°
2026-05-07 02:32 53.52229 -129.86147 30522 ft 376 kts 328°
2026-05-07 02:32 53.54615 -129.87933 30078 ft 374 kts 328°
2026-05-07 02:32 53.56987 -129.89709 29661 ft 372 kts 328°
2026-05-07 02:32 53.59344 -129.91472 29257 ft 369 kts 329°
2026-05-07 02:33 53.61681 -129.93222 28872 ft 366 kts 329°
2026-05-07 02:33 53.63998 -129.94955 28485 ft 363 kts 329°
2026-05-07 02:33 53.66295 -129.96682 28081 ft 360 kts 329°
2026-05-07 02:33 53.68571 -129.98387 27747 ft 356 kts 329°
2026-05-07 02:34 53.70831 -130.00106 27363 ft 357 kts 329°
2026-05-07 02:34 53.73095 -130.01809 26951 ft 356 kts 329°
2026-05-07 02:34 53.75356 -130.03486 26573 ft 355 kts 330°
2026-05-07 02:34 53.77607 -130.05177 26202 ft 353 kts 330°
2026-05-07 02:35 53.79842 -130.06872 25845 ft 352 kts 330°
2026-05-07 02:35 53.82070 -130.08558 25517 ft 351 kts 330°
2026-05-07 02:35 53.84299 -130.10243 25121 ft 350 kts 330°
2026-05-07 02:35 53.86520 -130.11924 24754 ft 349 kts 330°
2026-05-07 02:36 53.88734 -130.13602 24383 ft 348 kts 330°
2026-05-07 02:36 53.90939 -130.15279 24016 ft 347 kts 330°
2026-05-07 02:36 53.93140 -130.16954 23606 ft 346 kts 330°
2026-05-07 02:36 53.95337 -130.18626 23194 ft 344 kts 330°
2026-05-07 02:37 53.97512 -130.20283 22800 ft 342 kts 330°
2026-05-07 02:37 53.99676 -130.21933 22429 ft 340 kts 331°
2026-05-07 02:37 54.01824 -130.23573 22069 ft 337 kts 331°
2026-05-07 02:37 54.03958 -130.25204 21717 ft 335 kts 331°
2026-05-07 02:38 54.06078 -130.26827 21375 ft 333 kts 331°
2026-05-07 02:38 54.08186 -130.28442 21008 ft 331 kts 331°
2026-05-07 02:38 54.10284 -130.30052 20657 ft 330 kts 331°
2026-05-07 02:38 54.12372 -130.31656 20310 ft 328 kts 331°
2026-05-07 02:39 54.14450 -130.33254 19965 ft 327 kts 332°
2026-05-07 02:39 54.16520 -130.34847 19619 ft 326 kts 332°
2026-05-07 02:39 54.18581 -130.36435 19275 ft 324 kts 332°
2026-05-07 02:39 54.20636 -130.38020 18931 ft 324 kts 332°
2026-05-07 02:40 54.22685 -130.39601 18585 ft 323 kts 332°
2026-05-07 02:40 54.24730 -130.41182 18187 ft 322 kts 332°
2026-05-07 02:40 54.26699 -130.42952 17809 ft 318 kts 322°
2026-05-07 02:40 54.28432 -130.45262 17384 ft 316 kts 317°
2026-05-07 02:41 54.30127 -130.47674 16898 ft 317 kts 317°
2026-05-07 02:41 54.31818 -130.50097 16510 ft 316 kts 317°
2026-05-07 02:41 54.33497 -130.52503 16148 ft 315 kts 317°
2026-05-07 02:41 54.35174 -130.54900 15794 ft 313 kts 317°
2026-05-07 02:42 54.36842 -130.57281 15450 ft 311 kts 317°
2026-05-07 02:42 54.38502 -130.59649 15108 ft 309 kts 317°
2026-05-07 02:42 54.40152 -130.62001 14772 ft 307 kts 317°
2026-05-07 02:42 54.41790 -130.64336 14435 ft 306 kts 317°
2026-05-07 02:43 54.43422 -130.66664 14097 ft 304 kts 317°
2026-05-07 02:43 54.45046 -130.68983 13724 ft 303 kts 317°
2026-05-07 02:43 54.46664 -130.71294 13371 ft 301 kts 317°
2026-05-07 02:43 54.48266 -130.73585 13031 ft 298 kts 318°
2026-05-07 02:44 54.49857 -130.75862 12697 ft 296 kts 318°
2026-05-07 02:44 54.51432 -130.78119 12368 ft 294 kts 318°
2026-05-07 02:44 54.53000 -130.80367 12026 ft 292 kts 318°
2026-05-07 02:44 54.54558 -130.82603 11715 ft 291 kts 318°
2026-05-07 02:45 54.56106 -130.84828 11384 ft 289 kts 318°
2026-05-07 02:45 54.57645 -130.87042 11075 ft 287 kts 318°
2026-05-07 02:45 54.59177 -130.89249 10753 ft 286 kts 318°
2026-05-07 02:45 54.60695 -130.91437 10437 ft 280 kts 318°
2026-05-07 02:46 54.62171 -130.93565 10326 ft 275 kts 318°
2026-05-07 02:46 54.63636 -130.95681 10194 ft 274 kts 318°
2026-05-07 02:46 54.65091 -130.97785 10067 ft 272 kts 318°
2026-05-07 02:46 54.66545 -130.99890 9833 ft 275 kts 318°
2026-05-07 02:47 54.68016 -131.02021 9537 ft 275 kts 318°
2026-05-07 02:47 54.69471 -131.04132 9250 ft 272 kts 318°
2026-05-07 02:47 54.70918 -131.06230 8962 ft 269 kts 319°
2026-05-07 02:47 54.72346 -131.08305 8682 ft 267 kts 318°
2026-05-07 02:48 54.73761 -131.10363 8406 ft 264 kts 319°
2026-05-07 02:48 54.75174 -131.12419 8142 ft 267 kts 319°
2026-05-07 02:48 54.76589 -131.14482 7852 ft 264 kts 319°
2026-05-07 02:48 54.77989 -131.16523 7580 ft 262 kts 319°
2026-05-07 02:49 54.79375 -131.18546 7305 ft 260 kts 319°
2026-05-07 02:49 54.80751 -131.20556 7034 ft 258 kts 319°
2026-05-07 02:49 54.82119 -131.22556 6765 ft 257 kts 319°
2026-05-07 02:49 54.83479 -131.24547 6482 ft 256 kts 319°
2026-05-07 02:50 54.84836 -131.26535 6190 ft 255 kts 320°
2026-05-07 02:50 54.86186 -131.28516 5921 ft 254 kts 320°
2026-05-07 02:50 54.87532 -131.30490 5646 ft 253 kts 320°
2026-05-07 02:50 54.88869 -131.32455 5386 ft 251 kts 320°
2026-05-07 02:51 54.90196 -131.34406 5112 ft 249 kts 320°
2026-05-07 02:51 54.91520 -131.36355 4861 ft 250 kts 320°
2026-05-07 02:51 54.92839 -131.38297 4582 ft 247 kts 320°
2026-05-07 02:51 54.94137 -131.40210 4326 ft 243 kts 320°
2026-05-07 02:52 54.95413 -131.42093 4070 ft 237 kts 320°
2026-05-07 02:52 54.96641 -131.43905 3873 ft 227 kts 320°
2026-05-07 02:52 54.97835 -131.45671 3608 ft 223 kts 320°
2026-05-07 02:52 54.99003 -131.47399 3372 ft 219 kts 320°
2026-05-07 02:53 55.00167 -131.49120 3133 ft 219 kts 320°
2026-05-07 02:53 55.01335 -131.50850 2902 ft 221 kts 319°
2026-05-07 02:53 55.02512 -131.52594 2669 ft 222 kts 319°
2026-05-07 02:53 55.03679 -131.54327 2425 ft 220 kts 319°
2026-05-07 02:54 55.04841 -131.56052 2197 ft 219 kts 319°
2026-05-07 02:54 55.06008 -131.57759 2044 ft 220 kts 322°
2026-05-07 02:54 55.07375 -131.58963 2005 ft 221 kts 338°
2026-05-07 02:54 55.08788 -131.59950 1988 ft 217 kts 336°
2026-05-07 02:55 55.10160 -131.60957 1985 ft 212 kts 335°
2026-05-07 02:55 55.11524 -131.61974 1990 ft 215 kts 335°
2026-05-07 02:55 55.12905 -131.63008 2008 ft 218 kts 335°
2026-05-07 02:55 55.14316 -131.64047 2006 ft 221 kts 340°
2026-05-07 02:56 55.15831 -131.64203 1964 ft 221 kts
2026-05-07 02:56 55.17338 -131.63736 1941 ft 219 kts
2026-05-07 02:56 55.18833 -131.63305 1899 ft 216 kts
2026-05-07 02:56 55.20306 -131.62882 1851 ft 211 kts
2026-05-07 02:57 55.21716 -131.62478 1824 ft 199 kts
2026-05-07 02:57 55.23071 -131.62089 1808 ft 196 kts
2026-05-07 02:57 55.24394 -131.61711 1753 ft 187 kts
2026-05-07 02:57 55.25649 -131.61355 1709 ft 180 kts
2026-05-07 02:58 55.26859 -131.61009 1683 ft 173 kts
2026-05-07 02:58 55.28033 -131.60742 1583 ft 165 kts 357°
2026-05-07 02:58 55.29100 -131.61042 1474 ft 148 kts 337°
2026-05-07 02:58 55.29993 -131.61884 1506 ft 153 kts 323°
2026-05-07 02:59 55.30704 -131.63054 1390 ft 130 kts 311°
2026-05-07 02:59 55.31313 -131.64191 1143 ft 128 kts 318°
2026-05-07 02:59 55.31966 -131.65242 851 ft 130 kts 316°
2026-05-07 02:59 55.32610 -131.66379 687 ft 132 kts 320°
2026-05-07 03:00 55.33303 -131.67561 503 ft 148 kts 318°
2026-05-07 03:00 55.34065 -131.68850 284 ft 153 kts 317°
2026-05-07 03:00 55.34822 -131.70133 109 ft 146 kts 317°
2026-05-07 03:00 55.35459 -131.71213 98 ft 99 kts 316°
2026-05-07 03:01 55.35793 -131.71781 98 ft 35 kts 315°
2026-05-07 03:01 55.35878 -131.71927 99 ft 23 kts 315°
2026-05-07 03:01 55.36023 -131.72174 93 ft 27 kts 316°
2026-05-07 03:01 55.36122 -131.72321 93 ft 12 kts 347°
2026-05-07 03:02 55.36187 -131.72242 91 ft 13 kts 75°
2026-05-07 03:02 55.36144 -131.72100 92 ft 16 kts 134°
2026-05-07 03:02 55.36064 -131.71953 91 ft 16 kts 134°
2026-05-07 03:02 55.35974 -131.71788 73 ft 22 kts 133°
2026-05-07 03:03 55.35852 -131.71563 60 ft 23 kts 136°
2026-05-07 03:03 55.35749 -131.71389 56 ft 19 kts 136°
2026-05-07 03:03 55.35669 -131.71254 52 ft 15 kts 136°
2026-05-07 03:03 55.35610 -131.71156 50 ft 7 kts 130°
2026-05-07 03:04 55.35626 -131.71098 54 ft 6 kts 46°
2026-05-07 03:04 55.35655 -131.71047 51 ft 0 kts 45°
2026-05-07 03:04 55.35655 -131.71046 51 ft 0 kts 46°
2026-05-07 03:04 55.35657 -131.71042 51 ft 2 kts 45°
2026-05-07 03:05 55.35661 -131.71036 59 ft 0 kts 45°
2026-05-07 03:06 55.35656 -131.71043 51 ft 0 kts 46°